Regional Weather Roundup
Issued by NWS

Home | Current Version | Previous Version | Text Only | Print | Product List | Glossary On
Versions: 1 2 3 4 5 6 7 8 9 10 11 12 13 14 15 16 17 18 19 20 21 22 23 24 25 26 27
000
ASUS42 KKEY 260610
RWRKEY

FLORIDA REGIONAL WEATHER ROUNDUP FOR THE FLORIDA KEYS
NATIONAL WEATHER SERVICE KEY WEST FLORIDA
200 AM EDT SUN OCT 26 2014

...SOUTH FLORIDA AND THE KEYS...

CITY           SKY/WX    TMP DP  RH WIND       PRES   REMARKS
FORT MYERS     CLEAR     63  58  83 N6        29.96F
SW REGIONAL AP CLEAR     63  57  81 N5        29.97S
NAPLES         CLEAR     68  59  73 N5        29.96S
MIAMI          PTCLDY    73  63  70 N6        29.93F
WEST KENDALL   CLEAR     72  65  78 N9        29.93F
HOMESTEAD      CLEAR     67  64  87 NW6       29.92F
MARATHON       CLEAR     74  66  76 N7        29.92F
BOCA CHICA NAS CLEAR     74  65  73 NE6       29.93F
KEY WEST INTL  CLEAR     75  67  76 NE6       29.93F

...INTERNATIONAL WEATHER...

CITY           SKY/WX    TMP DP  RH WIND       PRES   REMARKS
NASSAU BAHAMAS PTCLDY    77  70  78 NE9       29.88S
CANCUN MEXICO  PTCLDY    68  66  94 NW6       29.96F
COZUMEL MEXICO PTCLDY    72  70  94 NW10      29.96F

ADJACENT COASTAL WATERS...

STATION/POSITION TIME  SKY/WX   TEMP    WIND        PRES    WAVE
                                AIR SEA DIR/SP/G            HT/PER
                 (UTC)          (F)     (DEG/KT/KT) (MB)    (FT/S)
PULASKI SHOAL LI 0500            77      30/ 13/ 14 1014.0F
SAND KEY         0536            76      50/ 17/ 19 1013.4F
SOMBRERO KEY     0600            76      30/ 11/ 12 1013.7F
LONG KEY         0456            76 77   30/ 10/ 11 1014.2F
MOLASSES REEF    0600            74 81  350/ 12/ 14 1013.0F
FOWEY ROCKS      0600            75 81  340/ 17/ 18 1013.3F
Buoy 42080       NOT AVBL

$$



USA.gov is the U.S. government's official web portal to all federal, state and local government web resources and services.